sat.trackr.live / text

‹ back to catalog

STARLINK-4464

NORAD 53669 · 2022-105X

PAYLOAD ACTIVE UNKNOWN

§ Identity

Operator
Country
US
Launch date
2022-08-31
Launch site
AFWTR
Launch vehicle
Mass (kg)
RCS (m²)

Purposes: comms

External: N2YO · Heavens-Above · Gunter

§ Orbital elements

Epoch: 2026-09-20T22:00:03.000096Z

Period
89.99 min
Inclination
97.5847°
Eccentricity
0.0003757
Mean motion
16.00210826 rev/d
Perigee alt
271.3 km
Apogee alt
276.3 km
Semi-major
6,652.0 km
B*
4.1688e-4
RAAN
155.4787°
Arg perigee
148.8442°
Mean anomaly
223.2654°
Rev number
601

§ Raw data

STARLINK-44641 53669U 22105X   26263.91670139  .00213286  21047-4  41688-3 0  99942 53669  97.5847 155.4787 0003757 148.8442 223.2654 16.00210826  6018

JSON: /api/v1/satellites/53669 · /tle

For live sub-satellite position, see the globe view (requires WebGL).

§ Visibility from observer

Set your observer location to see the next 7 days of passes ≥ 10°. The values pass through the URL so the page stays shareable.

No JS? Fill the form by hand. The geolocation button needs JavaScript.